Location: Franzen
(48.6167°N, 15.3833°E)
Time: 09:28:47
(UTC+00:00)

ERS-1 Rocket - Pass Details

Date: 22 April 2021
Orbit: 753 x 757 km, 98.4° (Epoch: 16 May)

Event Time Altitude Azimuth Distance (km) Brightness Sun altitude
Exits shadow 21:33:52 25° 244° (WSW) 1,496 4.4 -26.2°
Maximum altitude 21:35:01 27° 266° (W) 1,417 4.5 -26.2°
Drops below altitude 10° 21:39:17 10° 324° (NW) 2,288 6.4 -26.5°
Sets 21:41:56 0° 337° (NNW) 3,218 7.6 -26.7°
